Time,TemperatureF,DewpointF,PressureIn,WindDirection,WindDirectionDegrees,WindSpeedMPH,WindSpeedGustMPH,Humidity,HourlyPrecipIn,Conditions,Clouds,dailyrainin,SoftwareType,DateUTC
2013-02-02 00:00:00,21.8,8.5,23.27,WSW,241,9.0,12.0,56,0.00,,,0.00,VWS V13.01,2013-02-02 05:00:00,
2013-02-02 00:05:00,21.7,8.4,23.27,WSW,240,2.0,13.0,56,0.00,,,0.00,VWS V13.01,2013-02-02 05:05:00,
2013-02-02 00:10:00,21.7,8.8,23.27,WSW,243,10.0,10.0,57,0.00,,,0.00,VWS V13.01,2013-02-02 05:10:00,
2013-02-02 00:15:00,21.6,7.9,23.27,West,261,2.0,14.0,55,0.00,,,0.00,VWS V13.01,2013-02-02 05:15:00,
2013-02-02 00:20:00,21.7,8.4,23.27,WSW,237,7.0,8.0,56,0.00,,,0.00,VWS V13.01,2013-02-02 05:20:00,
2013-02-02 00:25:00,21.7,8.4,23.27,WNW,290,4.0,6.0,56,0.00,,,0.00,VWS V13.01,2013-02-02 05:25:00,
2013-02-02 00:30:00,21.7,8.4,23.27,West,269,0.0,4.0,56,0.00,,,0.00,VWS V13.01,2013-02-02 05:30:00,
2013-02-02 00:35:00,21.7,8.8,23.27,West,280,5.0,9.0,57,0.00,,,0.00,VWS V13.01,2013-02-02 05:35:00,
2013-02-02 00:40:00,21.7,8.8,23.27,WSW,252,6.0,10.0,57,0.00,,,0.00,VWS V13.01,2013-02-02 05:40:00,
2013-02-02 00:45:00,21.7,9.2,23.27,WSW,238,3.0,6.0,58,0.00,,,0.00,VWS V13.01,2013-02-02 05:45:00,
2013-02-02 00:50:00,21.5,8.6,23.27,WSW,254,3.0,7.0,57,0.00,,,0.00,VWS V13.01,2013-02-02 05:50:00,
2013-02-02 00:55:00,21.5,8.6,23.27,WSW,242,3.0,6.0,57,0.00,,,0.00,VWS V13.01,2013-02-02 05:55:00,
2013-02-02 01:00:00,21.6,9.5,23.27,West,274,2.0,7.0,59,0.00,,,0.00,VWS V13.01,2013-02-02 06:00:00,
2013-02-02 01:05:00,21.6,8.7,23.27,SW,225,6.0,6.0,57,0.00,,,0.00,VWS V13.01,2013-02-02 06:05:00,
2013-02-02 01:10:00,21.3,8.4,23.27,West,259,4.0,7.0,57,0.00,,,0.00,VWS V13.01,2013-02-02 06:10:00,
2013-02-02 01:15:00,21.3,8.4,23.27,West,268,6.0,7.0,57,0.00,,,0.00,VWS V13.01,2013-02-02 06:15:00,
2013-02-02 01:20:00,21.3,9.2,23.27,West,279,3.0,7.0,59,0.00,,,0.00,VWS V13.01,2013-02-02 06:20:00,
2013-02-02 01:25:00,21.2,8.7,23.27,West,278,0.0,8.0,58,0.00,,,0.00,VWS V13.01,2013-02-02 06:25:00,
2013-02-02 01:30:00,21.1,8.6,23.27,West,278,0.0,0.0,58,0.00,,,0.00,VWS V13.01,2013-02-02 06:30:00,
2013-02-02 01:35:00,21.1,9.4,23.27,West,269,2.0,4.0,60,0.00,,,0.00,VWS V13.01,2013-02-02 06:35:00,
2013-02-02 01:40:00,21.2,9.5,23.27,WSW,245,1.0,4.0,60,0.00,,,0.00,VWS V13.01,2013-02-02 06:40:00,
2013-02-02 01:45:00,21.3,10.0,23.27,WSW,248,3.0,4.0,61,0.00,,,0.00,VWS V13.01,2013-02-02 06:45:00,
2013-02-02 01:50:00,21.1,8.6,23.27,WSW,253,4.0,6.0,58,0.00,,,0.00,VWS V13.01,2013-02-02 06:50:00,
2013-02-02 01:55:00,21.1,9.4,23.27,West,279,1.0,5.0,60,0.00,,,0.00,VWS V13.01,2013-02-02 06:55:00,
2013-02-02 02:00:00,20.9,8.5,23.27,West,268,2.0,6.0,58,0.00,,,0.00,VWS V13.01,2013-02-02 07:00:00,
2013-02-02 02:05:00,20.8,8.8,23.27,West,266,1.0,4.0,59,0.00,,,0.00,VWS V13.01,2013-02-02 07:05:00,
2013-02-02 02:10:00,20.9,8.8,23.27,WSW,253,0.0,4.0,59,0.00,,,0.00,VWS V13.01,2013-02-02 07:10:00,
2013-02-02 02:15:00,20.9,8.8,23.27,WSW,252,0.0,4.0,59,0.00,,,0.00,VWS V13.01,2013-02-02 07:15:00,
2013-02-02 02:20:00,21.1,9.4,23.27,WSW,253,0.0,3.0,60,0.00,,,0.00,VWS V13.01,2013-02-02 07:20:00,
2013-02-02 02:25:00,21.0,9.3,23.27,WSW,253,0.0,4.0,60,0.00,,,0.00,VWS V13.01,2013-02-02 07:25:00,
2013-02-02 02:30:00,20.8,9.1,23.27,WSW,254,2.0,3.0,60,0.00,,,0.00,VWS V13.01,2013-02-02 07:30:00,
2013-02-02 02:35:00,20.8,9.1,23.27,West,260,0.0,4.0,60,0.00,,,0.00,VWS V13.01,2013-02-02 07:35:00,
2013-02-02 02:40:00,20.9,9.9,23.27,West,260,1.0,3.0,62,0.00,,,0.00,VWS V13.01,2013-02-02 07:40:00,
2013-02-02 02:45:00,20.9,10.3,23.27,WSW,256,0.0,3.0,63,0.00,,,0.00,VWS V13.01,2013-02-02 07:45:00,
2013-02-02 02:50:00,20.9,9.9,23.27,WSW,256,0.0,0.0,62,0.00,,,0.00,VWS V13.01,2013-02-02 07:50:00,
2013-02-02 02:55:00,20.9,10.3,23.27,WSW,256,1.0,3.0,63,0.00,,,0.00,VWS V13.01,2013-02-02 07:55:00,
2013-02-02 03:00:00,20.9,10.3,23.27,WSW,256,1.0,1.0,63,0.00,,,0.00,VWS V13.01,2013-02-02 08:00:00,
2013-02-02 03:05:00,21.3,11.4,23.27,WSW,256,0.0,1.0,65,0.00,,,0.00,VWS V13.01,2013-02-02 08:05:00,
2013-02-02 03:10:00,21.1,10.8,23.27,WSW,256,0.0,0.0,64,0.00,,,0.00,VWS V13.01,2013-02-02 08:10:00,
2013-02-02 03:15:00,21.6,12.7,23.27,WSW,256,0.0,1.0,68,0.00,,,0.00,VWS V13.01,2013-02-02 08:15:00,
2013-02-02 03:20:00,21.3,11.7,23.27,WSW,256,0.0,0.0,66,0.00,,,0.00,VWS V13.01,2013-02-02 08:20:00,
2013-02-02 03:25:00,20.7,10.8,23.27,WSW,256,0.0,0.0,65,0.00,,,0.00,VWS V13.01,2013-02-02 08:25:00,
2013-02-02 03:30:00,20.0,9.4,23.27,WSW,256,0.0,1.0,63,0.00,,,0.00,VWS V13.01,2013-02-02 08:30:00,
2013-02-02 03:35:00,19.8,9.6,23.27,WSW,256,0.0,3.0,64,0.00,,,0.00,VWS V13.01,2013-02-02 08:35:00,
2013-02-02 03:40:00,20.8,11.6,23.27,WSW,256,0.0,1.0,67,0.00,,,0.00,VWS V13.01,2013-02-02 08:40:00,
2013-02-02 03:45:00,21.6,13.7,23.27,WSW,256,0.0,1.0,71,0.00,,,0.00,VWS V13.01,2013-02-02 08:45:00,
2013-02-02 03:50:00,22.5,14.5,23.27,WSW,256,0.0,1.0,71,0.00,,,0.00,VWS V13.01,2013-02-02 08:50:00,
2013-02-02 03:55:00,21.6,12.7,23.27,WSW,256,0.0,1.0,68,0.00,,,0.00,VWS V13.01,2013-02-02 08:55:00,
2013-02-02 04:00:00,22.0,14.1,23.27,WSW,256,0.0,1.0,71,0.00,,,0.00,VWS V13.01,2013-02-02 09:00:00,
2013-02-02 04:05:00,21.6,13.0,23.27,WSW,256,0.0,1.0,69,0.00,,,0.00,VWS V13.01,2013-02-02 09:05:00,
2013-02-02 04:11:00,20.9,11.7,23.27,WSW,256,0.0,0.0,67,0.00,,,0.00,VWS V13.01,2013-02-02 09:11:00,
2013-02-02 04:16:00,20.2,11.0,23.27,WSW,256,0.0,0.0,67,0.00,,,0.00,VWS V13.01,2013-02-02 09:16:00,
2013-02-02 04:21:00,20.6,13.0,23.27,WSW,256,0.0,1.0,72,0.00,,,0.00,VWS V13.01,2013-02-02 09:21:00,
2013-02-02 04:26:00,20.4,11.9,23.27,WSW,256,0.0,0.0,69,0.00,,,0.00,VWS V13.01,2013-02-02 09:26:00,
2013-02-02 04:31:00,19.7,10.5,23.27,WSW,256,0.0,0.0,67,0.00,,,0.00,VWS V13.01,2013-02-02 09:31:00,
2013-02-02 04:36:00,19.1,10.0,23.27,WSW,256,0.0,0.0,67,0.00,,,0.00,VWS V13.01,2013-02-02 09:36:00,
2013-02-02 04:41:00,18.8,10.6,23.27,WSW,256,0.0,0.0,70,0.00,,,0.00,VWS V13.01,2013-02-02 09:41:00,
2013-02-02 04:46:00,19.3,11.8,23.27,WSW,256,0.0,1.0,72,0.00,,,0.00,VWS V13.01,2013-02-02 09:46:00,
2013-02-02 04:51:00,19.7,12.1,23.27,WSW,256,0.0,0.0,72,0.00,,,0.00,VWS V13.01,2013-02-02 09:51:00,
2013-02-02 04:56:00,19.4,11.6,23.27,WSW,256,0.0,0.0,71,0.00,,,0.00,VWS V13.01,2013-02-02 09:56:00,
2013-02-02 05:01:00,19.0,10.8,23.27,WSW,256,0.0,0.0,70,0.00,,,0.00,VWS V13.01,2013-02-02 10:01:00,
2013-02-02 05:06:00,18.9,10.8,23.27,WSW,256,0.0,0.0,70,0.00,,,0.00,VWS V13.01,2013-02-02 10:06:00,
2013-02-02 05:11:00,18.5,10.0,23.27,WSW,256,0.0,0.0,69,0.00,,,0.00,VWS V13.01,2013-02-02 10:11:00,
2013-02-02 05:16:00,18.4,10.9,23.27,WSW,256,0.0,0.0,72,0.00,,,0.00,VWS V13.01,2013-02-02 10:16:00,
2013-02-02 05:21:00,19.1,11.9,23.27,WSW,256,0.0,0.0,73,0.00,,,0.00,VWS V13.01,2013-02-02 10:21:00,
2013-02-02 05:26:00,18.9,11.1,23.27,WSW,256,0.0,0.0,71,0.00,,,0.00,VWS V13.01,2013-02-02 10:26:00,
2013-02-02 05:31:00,18.6,10.5,23.27,WSW,256,0.0,0.0,70,0.00,,,0.00,VWS V13.01,2013-02-02 10:31:00,
2013-02-02 05:36:00,18.7,11.5,23.27,WSW,256,0.0,0.0,73,0.00,,,0.00,VWS V13.01,2013-02-02 10:36:00,
2013-02-02 05:41:00,19.4,12.8,23.27,WSW,256,0.0,1.0,75,0.00,,,0.00,VWS V13.01,2013-02-02 10:41:00,
2013-02-02 05:46:00,19.3,12.1,23.27,WSW,256,0.0,0.0,73,0.00,,,0.00,VWS V13.01,2013-02-02 10:46:00,
2013-02-02 05:51:00,19.3,12.4,23.27,WSW,256,0.0,0.0,74,0.00,,,0.00,VWS V13.01,2013-02-02 10:51:00,
2013-02-02 05:56:00,19.4,12.2,23.27,WSW,256,0.0,0.0,73,0.00,,,0.00,VWS V13.01,2013-02-02 10:56:00,
2013-02-02 06:01:00,19.4,12.2,23.27,WSW,256,0.0,1.0,73,0.00,,,0.00,VWS V13.01,2013-02-02 11:01:00,
2013-02-02 06:06:00,19.3,12.1,23.27,WSW,256,0.0,0.0,73,0.00,,,0.00,VWS V13.01,2013-02-02 11:06:00,
2013-02-02 06:11:00,19.1,11.6,23.27,WSW,256,0.0,0.0,72,0.00,,,0.00,VWS V13.01,2013-02-02 11:11:00,
2013-02-02 06:16:00,18.7,10.9,23.27,WSW,256,0.0,0.0,71,0.00,,,0.00,VWS V13.01,2013-02-02 11:16:00,
2013-02-02 06:21:00,18.2,10.4,23.27,WSW,256,0.0,0.0,71,0.00,,,0.00,VWS V13.01,2013-02-02 11:21:00,
2013-02-02 06:26:00,18.6,12.0,23.27,WSW,256,0.0,0.0,75,0.00,,,0.00,VWS V13.01,2013-02-02 11:26:00,
2013-02-02 06:31:00,19.0,12.4,23.27,WSW,256,0.0,1.0,75,0.00,,,0.00,VWS V13.01,2013-02-02 11:31:00,
2013-02-02 06:36:00,19.1,12.2,23.27,WSW,256,0.0,0.0,74,0.00,,,0.00,VWS V13.01,2013-02-02 11:36:00,
2013-02-02 06:41:00,18.8,11.6,23.27,WSW,256,0.0,0.0,73,0.00,,,0.00,VWS V13.01,2013-02-02 11:41:00,
2013-02-02 06:46:00,18.3,10.8,23.27,WSW,256,0.0,0.0,72,0.00,,,0.00,VWS V13.01,2013-02-02 11:46:00,
2013-02-02 06:51:00,18.0,10.5,23.27,WSW,256,0.0,0.0,72,0.00,,,0.00,VWS V13.01,2013-02-02 11:51:00,
2013-02-02 06:56:00,17.9,10.4,23.27,WSW,256,0.0,0.0,72,0.00,,,0.00,VWS V13.01,2013-02-02 11:56:00,
2013-02-02 07:01:00,18.0,11.1,23.27,WSW,256,0.0,0.0,74,0.00,,,0.00,VWS V13.01,2013-02-02 12:01:00,
2013-02-02 07:06:00,18.4,11.5,23.27,WSW,256,0.0,0.0,74,0.00,,,0.00,VWS V13.01,2013-02-02 12:06:00,
2013-02-02 07:11:00,18.4,11.2,23.27,WSW,256,0.0,0.0,73,0.00,,,0.00,VWS V13.01,2013-02-02 12:11:00,
2013-02-02 07:16:00,18.9,12.0,23.27,WSW,256,0.0,0.0,74,0.00,,,0.00,VWS V13.01,2013-02-02 12:16:00,
2013-02-02 07:21:00,19.7,13.4,23.27,WSW,256,0.0,1.0,76,0.00,,,0.00,VWS V13.01,2013-02-02 12:21:00,
2013-02-02 07:26:00,19.3,12.1,23.27,WSW,256,0.0,0.0,73,0.00,,,0.00,VWS V13.01,2013-02-02 12:26:00,
2013-02-02 07:31:00,18.8,11.3,23.27,WSW,256,0.0,0.0,72,0.00,,,0.00,VWS V13.01,2013-02-02 12:31:00,
2013-02-02 07:36:00,18.5,11.0,23.27,WSW,256,0.0,0.0,72,0.00,,,0.00,VWS V13.01,2013-02-02 12:36:00,
2013-02-02 07:41:00,18.9,11.7,23.27,WSW,256,0.0,0.0,73,0.00,,,0.00,VWS V13.01,2013-02-02 12:41:00,
2013-02-02 07:46:00,19.8,13.2,23.27,WSW,256,0.0,1.0,75,0.00,,,0.00,VWS V13.01,2013-02-02 12:46:00,
2013-02-02 07:51:00,20.7,13.7,23.27,WSW,256,0.0,1.0,74,0.00,,,0.00,VWS V13.01,2013-02-02 12:51:00,
2013-02-02 07:56:00,20.6,13.0,23.27,WSW,256,0.0,2.0,72,0.00,,,0.00,VWS V13.01,2013-02-02 12:56:00,
2013-02-02 08:01:00,21.0,13.7,23.27,ESE,118,0.0,3.0,73,0.00,,,0.00,VWS V13.01,2013-02-02 13:01:00,
2013-02-02 08:06:00,21.8,14.2,23.27,ESE,117,0.0,1.0,72,0.00,,,0.00,VWS V13.01,2013-02-02 13:06:00,
2013-02-02 08:11:00,21.3,13.1,23.27,ESE,118,1.0,3.0,70,0.00,,,0.00,VWS V13.01,2013-02-02 13:11:00,
2013-02-02 08:16:00,21.2,13.3,23.27,ESE,118,1.0,2.0,71,0.00,,,0.00,VWS V13.01,2013-02-02 13:16:00,
2013-02-02 08:21:00,22.7,14.4,23.27,ESE,119,0.0,2.0,70,0.00,,,0.00,VWS V13.01,2013-02-02 13:21:00,
2013-02-02 08:26:00,23.3,14.0,23.27,ESE,119,0.0,1.0,67,0.00,,,0.00,VWS V13.01,2013-02-02 13:26:00,
2013-02-02 08:31:00,23.3,12.9,23.27,East,80,0.0,3.0,64,0.00,,,0.00,VWS V13.01,2013-02-02 13:31:00,
2013-02-02 08:36:00,23.6,12.1,23.27,East,86,3.0,3.0,61,0.00,,,0.00,VWS V13.01,2013-02-02 13:36:00,
2013-02-02 08:41:00,23.1,10.5,23.27,SE,141,1.0,4.0,58,0.00,,,0.00,VWS V13.01,2013-02-02 13:41:00,
2013-02-02 08:46:00,23.0,10.4,23.27,SSE,159,0.0,5.0,58,0.00,,,0.00,VWS V13.01,2013-02-02 13:46:00,
2013-02-02 08:51:00,23.5,12.0,23.27,ESE,118,2.0,4.0,61,0.00,,,0.00,VWS V13.01,2013-02-02 13:51:00,
2013-02-02 08:56:00,23.8,12.3,23.27,SE,144,6.0,6.0,61,0.00,,,0.00,VWS V13.01,2013-02-02 13:56:00,
2013-02-02 09:01:00,24.0,12.9,23.27,SSE,168,4.0,5.0,62,0.00,,,0.00,VWS V13.01,2013-02-02 14:01:00,
2013-02-02 09:06:00,24.0,11.8,23.27,SE,134,2.0,7.0,59,0.00,,,0.00,VWS V13.01,2013-02-02 14:06:00,
2013-02-02 09:11:00,24.1,11.5,23.27,SE,129,1.0,7.0,58,0.00,,,0.00,VWS V13.01,2013-02-02 14:11:00,
2013-02-02 09:16:00,24.8,12.1,23.27,SE,125,1.0,4.0,58,0.00,,,0.00,VWS V13.01,2013-02-02 14:16:00,
2013-02-02 09:21:00,25.5,12.8,23.27,SE,128,5.0,5.0,58,0.00,,,0.00,VWS V13.01,2013-02-02 14:21:00,
2013-02-02 09:26:00,25.8,12.7,23.27,SSE,168,6.0,9.0,57,0.00,,,0.00,VWS V13.01,2013-02-02 14:26:00,
2013-02-02 09:31:00,25.4,12.7,23.27,East,94,6.0,6.0,58,0.00,,,0.00,VWS V13.01,2013-02-02 14:31:00,
2013-02-02 09:36:00,25.8,13.5,23.27,ESE,103,3.0,7.0,59,0.00,,,0.00,VWS V13.01,2013-02-02 14:36:00,
2013-02-02 09:41:00,25.9,13.2,23.27,ENE,76,0.0,11.0,58,0.00,,,0.00,VWS V13.01,2013-02-02 14:41:00,
2013-02-02 09:46:00,26.6,13.8,23.27,ESE,103,4.0,6.0,58,0.00,,,0.00,VWS V13.01,2013-02-02 14:46:00,
2013-02-02 09:51:00,26.2,12.7,23.27,SSE,150,5.0,8.0,56,0.00,,,0.00,VWS V13.01,2013-02-02 14:51:00,
2013-02-02 09:56:00,26.1,13.0,23.27,East,80,2.0,6.0,57,0.00,,,0.00,VWS V13.01,2013-02-02 14:56:00,
2013-02-02 10:01:00,26.2,13.1,23.27,SE,145,4.0,7.0,57,0.00,,,0.00,VWS V13.01,2013-02-02 15:01:00,
2013-02-02 10:06:00,26.4,13.2,23.27,SE,135,6.0,8.0,57,0.00,,,0.00,VWS V13.01,2013-02-02 15:06:00,
2013-02-02 10:11:00,26.5,12.9,23.27,SE,140,5.0,9.0,56,0.00,,,0.00,VWS V13.01,2013-02-02 15:11:00,
2013-02-02 10:16:00,26.5,12.1,23.27,SSE,165,3.0,7.0,54,0.00,,,0.00,VWS V13.01,2013-02-02 15:16:00,
2013-02-02 10:21:00,26.8,12.0,23.27,ESE,119,2.0,7.0,53,0.00,,,0.00,VWS V13.01,2013-02-02 15:21:00,
2013-02-02 10:26:00,27.3,13.3,23.27,ESE,114,3.0,7.0,55,0.00,,,0.00,VWS V13.01,2013-02-02 15:26:00,
2013-02-02 10:31:00,27.1,13.1,23.27,SSE,168,3.0,6.0,55,0.00,,,0.00,VWS V13.01,2013-02-02 15:31:00,
2013-02-02 10:36:00,27.0,13.0,23.27,East,96,6.0,11.0,55,0.00,,,0.00,VWS V13.01,2013-02-02 15:36:00,
2013-02-02 10:41:00,26.8,12.0,23.27,ENE,72,5.0,9.0,53,0.00,,,0.00,VWS V13.01,2013-02-02 15:41:00,
2013-02-02 10:46:00,27.2,13.2,23.27,ESE,120,4.0,10.0,55,0.00,,,0.00,VWS V13.01,2013-02-02 15:46:00,
2013-02-02 10:51:00,27.4,12.5,23.27,SE,137,5.0,11.0,53,0.00,,,0.00,VWS V13.01,2013-02-02 15:51:00,
2013-02-02 10:56:00,27.9,13.0,23.27,SE,134,3.0,13.0,53,0.00,,,0.00,VWS V13.01,2013-02-02 15:56:00,
2013-02-02 11:01:00,28.1,14.0,23.27,SSW,198,3.0,9.0,55,0.00,,,0.00,VWS V13.01,2013-02-02 16:01:00,
2013-02-02 11:06:00,28.2,12.9,23.27,ESE,118,5.0,9.0,52,0.00,,,0.00,VWS V13.01,2013-02-02 16:06:00,
2013-02-02 11:11:00,28.3,12.9,23.27,SSW,213,3.0,10.0,52,0.00,,,0.00,VWS V13.01,2013-02-02 16:11:00,
2013-02-02 11:16:00,28.2,12.4,23.27,SSW,213,6.0,6.0,51,0.00,,,0.00,VWS V13.01,2013-02-02 16:16:00,
2013-02-02 11:21:00,28.1,11.9,23.27,SSE,165,5.0,10.0,50,0.00,,,0.00,VWS V13.01,2013-02-02 16:21:00,
2013-02-02 11:26:00,28.4,12.1,23.27,SSE,168,3.0,7.0,50,0.00,,,0.00,VWS V13.01,2013-02-02 16:26:00,
2013-02-02 11:31:00,28.5,11.8,23.27,SSE,152,4.0,7.0,49,0.00,,,0.00,VWS V13.01,2013-02-02 16:31:00,
2013-02-02 11:36:00,28.7,12.0,23.27,SE,132,2.0,7.0,49,0.00,,,0.00,VWS V13.01,2013-02-02 16:36:00,
2013-02-02 11:41:00,29.2,12.4,23.27,SW,220,1.0,11.0,49,0.00,,,0.00,VWS V13.01,2013-02-02 16:41:00,
2013-02-02 11:46:00,29.5,12.7,23.27,South,174,5.0,9.0,49,0.00,,,0.00,VWS V13.01,2013-02-02 16:46:00,
2013-02-02 11:51:00,29.2,13.3,23.27,ESE,111,5.0,9.0,51,0.00,,,0.00,VWS V13.01,2013-02-02 16:51:00,
2013-02-02 11:56:00,28.8,13.4,23.27,ESE,109,4.0,10.0,52,0.00,,,0.00,VWS V13.01,2013-02-02 16:56:00,
2013-02-02 12:01:00,28.5,13.6,23.27,East,92,6.0,11.0,53,0.00,,,0.00,VWS V13.01,2013-02-02 17:01:00,
2013-02-02 12:06:00,28.7,14.2,23.27,SSE,157,3.0,6.0,54,0.00,,,0.00,VWS V13.01,2013-02-02 17:06:00,
2013-02-02 12:11:00,28.7,14.2,23.27,East,85,2.0,7.0,54,0.00,,,0.00,VWS V13.01,2013-02-02 17:11:00,
2013-02-02 12:16:00,28.4,13.9,23.27,ESE,113,3.0,12.0,54,0.00,,,0.00,VWS V13.01,2013-02-02 17:16:00,
2013-02-02 12:21:00,28.4,14.3,23.27,SE,126,9.0,9.0,55,0.00,,,0.00,VWS V13.01,2013-02-02 17:21:00,
2013-02-02 12:26:00,28.7,14.6,23.27,SE,137,2.0,9.0,55,0.00,,,0.00,VWS V13.01,2013-02-02 17:26:00,
2013-02-02 12:31:00,28.8,15.1,23.27,East,99,0.0,7.0,56,0.00,,,0.00,VWS V13.01,2013-02-02 17:31:00,
2013-02-02 12:36:00,28.9,15.6,23.27,SSE,168,1.0,12.0,57,0.00,,,0.00,VWS V13.01,2013-02-02 17:36:00,
2013-02-02 12:41:00,28.2,15.7,23.27,SSW,211,3.0,10.0,59,0.00,,,0.00,VWS V13.01,2013-02-02 17:41:00,
2013-02-02 12:46:00,28.0,15.9,23.27,SW,221,2.0,11.0,60,0.00,,,0.00,VWS V13.01,2013-02-02 17:46:00,
2013-02-02 12:51:00,28.2,16.1,23.27,South,184,6.0,7.0,60,0.00,,,0.00,VWS V13.01,2013-02-02 17:51:00,
2013-02-02 12:56:00,28.1,16.4,23.27,South,181,3.0,9.0,61,0.00,,,0.00,VWS V13.01,2013-02-02 17:56:00,
2013-02-02 13:01:00,28.5,17.5,23.27,SW,222,4.0,9.0,63,0.00,,,0.00,VWS V13.01,2013-02-02 18:01:00,
2013-02-02 13:06:00,28.2,16.9,23.27,SW,228,2.0,10.0,62,0.00,,,0.00,VWS V13.01,2013-02-02 18:06:00,
2013-02-02 13:11:00,28.1,17.1,23.27,South,188,8.0,8.0,63,0.00,,,0.00,VWS V13.01,2013-02-02 18:11:00,
2013-02-02 13:16:00,28.6,17.6,23.27,SSE,160,5.0,9.0,63,0.00,,,0.00,VWS V13.01,2013-02-02 18:16:00,
2013-02-02 13:21:00,28.4,17.8,23.27,South,175,1.0,10.0,64,0.00,,,0.00,VWS V13.01,2013-02-02 18:21:00,
2013-02-02 13:26:00,28.5,17.9,23.27,SSW,196,4.0,6.0,64,0.00,,,0.00,VWS V13.01,2013-02-02 18:26:00,
2013-02-02 13:31:00,28.6,18.0,23.27,South,175,0.0,6.0,64,0.00,,,0.00,VWS V13.01,2013-02-02 18:31:00,
2013-02-02 13:36:00,29.4,18.7,23.27,East,81,3.0,5.0,64,0.00,,,0.00,VWS V13.01,2013-02-02 18:36:00,
2013-02-02 13:41:00,29.2,17.1,23.27,East,92,1.0,4.0,60,0.00,,,0.00,VWS V13.01,2013-02-02 18:41:00,
2013-02-02 13:46:00,29.1,17.0,23.27,East,95,2.0,3.0,60,0.00,,,0.00,VWS V13.01,2013-02-02 18:46:00,
2013-02-02 13:51:00,29.8,17.6,23.27,ENE,67,4.0,4.0,60,0.00,,,0.00,VWS V13.01,2013-02-02 18:51:00,
2013-02-02 13:56:00,30.4,17.8,23.27,ENE,74,2.0,4.0,59,0.00,,,0.00,VWS V13.01,2013-02-02 18:56:00,
2013-02-02 14:01:00,30.4,17.4,23.27,ENE,71,4.0,5.0,58,0.00,,,0.00,VWS V13.01,2013-02-02 19:01:00,
2013-02-02 14:06:00,30.7,16.9,23.27,SSE,155,2.0,7.0,56,0.00,,,0.00,VWS V13.01,2013-02-02 19:06:00,
2013-02-02 14:11:00,31.0,17.6,23.27,East,89,2.0,5.0,57,0.00,,,0.00,VWS V13.01,2013-02-02 19:11:00,
2013-02-02 14:16:00,31.2,17.8,23.27,East,92,2.0,5.0,57,0.00,,,0.00,VWS V13.01,2013-02-02 19:16:00,
2013-02-02 14:21:00,31.4,17.1,23.27,East,88,4.0,7.0,55,0.00,,,0.00,VWS V13.01,2013-02-02 19:21:00,
2013-02-02 14:26:00,31.5,18.4,23.27,ENE,65,2.0,6.0,58,0.00,,,0.00,VWS V13.01,2013-02-02 19:26:00,
2013-02-02 14:31:00,31.8,18.7,23.27,East,79,2.0,3.0,58,0.00,,,0.00,VWS V13.01,2013-02-02 19:31:00,
2013-02-02 14:36:00,31.9,17.6,23.27,ESE,109,1.0,4.0,55,0.00,,,0.00,VWS V13.01,2013-02-02 19:36:00,
2013-02-02 14:41:00,32.3,18.4,23.27,ESE,102,2.0,4.0,56,0.00,,,0.00,VWS V13.01,2013-02-02 19:41:00,
2013-02-02 14:46:00,31.9,15.8,23.27,SSE,160,5.0,11.0,51,0.00,,,0.00,VWS V13.01,2013-02-02 19:46:00,
2013-02-02 14:51:00,31.8,16.2,23.27,South,177,2.0,11.0,52,0.00,,,0.00,VWS V13.01,2013-02-02 19:51:00,
2013-02-02 14:56:00,31.9,15.8,23.27,ESE,105,5.0,10.0,51,0.00,,,0.00,VWS V13.01,2013-02-02 19:56:00,
2013-02-02 15:01:00,31.5,15.9,23.27,South,183,4.0,13.0,52,0.00,,,0.00,VWS V13.01,2013-02-02 20:01:00,
2013-02-02 15:06:00,31.5,15.5,23.27,ESE,118,5.0,7.0,51,0.00,,,0.00,VWS V13.01,2013-02-02 20:06:00,
2013-02-02 15:11:00,31.7,15.7,23.27,ESE,107,2.0,9.0,51,0.00,,,0.00,VWS V13.01,2013-02-02 20:11:00,
2013-02-02 15:16:00,32.2,17.9,23.27,East,97,4.0,6.0,55,0.00,,,0.00,VWS V13.01,2013-02-02 20:16:00,
2013-02-02 15:21:00,32.4,16.3,23.27,ENE,69,6.0,6.0,51,0.00,,,0.00,VWS V13.01,2013-02-02 20:21:00,
2013-02-02 15:26:00,32.5,16.4,23.27,East,79,4.0,10.0,51,0.00,,,0.00,VWS V13.01,2013-02-02 20:26:00,
2013-02-02 15:31:00,32.7,16.6,23.27,SSE,165,3.0,6.0,51,0.00,,,0.00,VWS V13.01,2013-02-02 20:31:00,
2013-02-02 15:36:00,32.8,16.7,23.27,East,89,4.0,7.0,51,0.00,,,0.00,VWS V13.01,2013-02-02 20:36:00,
2013-02-02 15:41:00,33.1,16.0,23.27,ENE,71,4.0,7.0,49,0.00,,,0.00,VWS V13.01,2013-02-02 20:41:00,
2013-02-02 15:46:00,33.0,16.4,23.27,ESE,119,2.0,7.0,50,0.00,,,0.00,VWS V13.01,2013-02-02 20:46:00,
2013-02-02 15:51:00,33.1,16.0,23.27,SSE,155,3.0,7.0,49,0.00,,,0.00,VWS V13.01,2013-02-02 20:51:00,
2013-02-02 15:56:00,33.2,16.1,23.27,South,171,5.0,12.0,49,0.00,,,0.00,VWS V13.01,2013-02-02 20:56:00,
2013-02-02 16:01:00,33.3,16.7,23.27,ESE,103,5.0,10.0,50,0.00,,,0.00,VWS V13.01,2013-02-02 21:01:00,
2013-02-02 16:06:00,33.3,16.2,23.27,ESE,108,2.0,11.0,49,0.00,,,0.00,VWS V13.01,2013-02-02 21:06:00,
2013-02-02 16:11:00,33.3,16.2,23.27,ESE,113,5.0,9.0,49,0.00,,,0.00,VWS V13.01,2013-02-02 21:11:00,
2013-02-02 16:16:00,33.3,16.2,23.27,ESE,118,4.0,6.0,49,0.00,,,0.00,VWS V13.01,2013-02-02 21:16:00,
2013-02-02 16:21:00,33.3,16.2,23.27,SE,125,5.0,10.0,49,0.00,,,0.00,VWS V13.01,2013-02-02 21:21:00,
2013-02-02 16:26:00,33.3,16.7,23.27,SW,234,4.0,12.0,50,0.00,,,0.00,VWS V13.01,2013-02-02 21:26:00,
2013-02-02 16:31:00,33.2,17.9,23.27,ESE,105,2.0,13.0,53,0.00,,,0.00,VWS V13.01,2013-02-02 21:31:00,
2013-02-02 16:36:00,32.9,18.9,23.27,SSW,196,5.0,11.0,56,0.00,,,0.00,VWS V13.01,2013-02-02 21:36:00,
2013-02-02 16:41:00,32.1,19.8,23.27,SE,146,2.0,14.0,60,0.00,,,0.00,VWS V13.01,2013-02-02 21:41:00,
2013-02-02 16:46:00,31.6,19.7,23.27,ESE,111,3.0,7.0,61,0.00,,,0.00,VWS V13.01,2013-02-02 21:46:00,
2013-02-02 16:51:00,31.6,20.8,23.27,East,99,5.0,12.0,64,0.00,,,0.00,VWS V13.01,2013-02-02 21:51:00,
2013-02-02 16:56:00,31.0,21.7,23.27,SE,141,3.0,13.0,68,0.00,,,0.00,VWS V13.01,2013-02-02 21:56:00,
2013-02-02 17:01:00,30.5,21.9,23.27,SE,146,10.0,15.0,70,0.00,,,0.00,VWS V13.01,2013-02-02 22:01:00,
2013-02-02 17:06:00,29.9,23.0,23.27,SE,137,10.0,13.0,75,0.00,,,0.00,VWS V13.01,2013-02-02 22:06:00,
2013-02-02 17:11:00,29.4,23.4,23.27,ESE,111,7.0,10.0,78,0.00,,,0.00,VWS V13.01,2013-02-02 22:11:00,
2013-02-02 17:16:00,29.0,23.6,23.27,East,98,1.0,11.0,80,0.00,,,0.00,VWS V13.01,2013-02-02 22:16:00,
2013-02-02 17:21:00,28.9,24.1,23.27,South,182,3.0,8.0,82,0.00,,,0.00,VWS V13.01,2013-02-02 22:21:00,
2013-02-02 17:26:00,28.9,24.1,23.27,ESE,121,3.0,4.0,82,0.00,,,0.00,VWS V13.01,2013-02-02 22:26:00,
2013-02-02 17:31:00,29.3,24.8,23.27,ENE,71,2.0,4.0,83,0.00,,,0.00,VWS V13.01,2013-02-02 22:31:00,
2013-02-02 17:36:00,29.0,24.5,23.27,East,91,3.0,7.0,83,0.00,,,0.00,VWS V13.01,2013-02-02 22:36:00,
2013-02-02 17:41:00,28.9,24.7,23.27,SE,130,0.0,5.0,84,0.00,,,0.00,VWS V13.01,2013-02-02 22:41:00,
2013-02-02 17:46:00,29.1,25.2,23.27,East,79,2.0,3.0,85,0.00,,,0.00,VWS V13.01,2013-02-02 22:46:00,
2013-02-02 17:51:00,29.0,25.1,23.27,East,80,2.0,4.0,85,0.00,,,0.00,VWS V13.01,2013-02-02 22:51:00,
2013-02-02 17:56:00,28.8,25.1,23.27,ESE,114,1.0,3.0,86,0.00,,,0.00,VWS V13.01,2013-02-02 22:56:00,
2013-02-02 18:01:00,28.7,25.0,23.27,ESE,114,1.0,3.0,86,0.00,,,0.00,VWS V13.01,2013-02-02 23:01:00,
2013-02-02 18:06:00,29.3,25.9,23.27,East,83,1.0,3.0,87,0.00,,,0.00,VWS V13.01,2013-02-02 23:06:00,
2013-02-02 18:11:00,29.5,26.1,23.27,East,92,2.0,5.0,87,0.00,,,0.00,VWS V13.01,2013-02-02 23:11:00,
2013-02-02 18:16:00,30.1,26.7,23.27,East,91,0.0,2.0,87,0.00,,,0.00,VWS V13.01,2013-02-02 23:16:00,
2013-02-02 18:21:00,29.9,26.5,23.27,East,90,1.0,2.0,87,0.00,,,0.00,VWS V13.01,2013-02-02 23:21:00,
2013-02-02 18:26:00,29.4,25.7,23.27,East,90,1.0,3.0,86,0.00,,,0.00,VWS V13.01,2013-02-02 23:26:00,
2013-02-02 18:31:00,29.0,25.6,23.27,East,90,0.0,3.0,87,0.00,,,0.00,VWS V13.01,2013-02-02 23:31:00,
2013-02-02 18:36:00,29.5,26.1,23.27,East,90,0.0,3.0,87,0.00,,,0.00,VWS V13.01,2013-02-02 23:36:00,
2013-02-02 18:41:00,30.2,27.1,23.27,East,88,1.0,2.0,88,0.00,,,0.00,VWS V13.01,2013-02-02 23:41:00,
2013-02-02 18:46:00,30.2,26.8,23.27,East,88,0.0,2.0,87,0.00,,,0.00,VWS V13.01,2013-02-02 23:46:00,
2013-02-02 18:51:00,30.3,26.9,23.27,East,86,0.0,2.0,87,0.00,,,0.00,VWS V13.01,2013-02-02 23:51:00,
2013-02-02 18:56:00,30.1,26.7,23.27,East,92,2.0,4.0,87,0.00,,,0.00,VWS V13.01,2013-02-02 23:56:00,
2013-02-02 19:01:00,29.6,26.2,23.27,ESE,119,0.0,10.0,87,0.00,,,0.00,VWS V13.01,2013-02-03 00:01:00,
2013-02-02 19:06:00,29.5,26.1,23.27,SE,144,2.0,4.0,87,0.00,,,0.00,VWS V13.01,2013-02-03 00:06:00,
2013-02-02 19:11:00,29.7,26.3,23.27,East,86,2.0,5.0,87,0.00,,,0.00,VWS V13.01,2013-02-03 00:11:00,
2013-02-02 19:16:00,29.6,26.2,23.27,SSE,153,2.0,7.0,87,0.00,,,0.00,VWS V13.01,2013-02-03 00:16:00,
2013-02-02 19:21:00,29.6,26.2,23.27,SE,136,4.0,9.0,87,0.00,,,0.00,VWS V13.01,2013-02-03 00:21:00,
2013-02-02 19:26:00,29.5,26.1,23.27,South,184,1.0,6.0,87,0.00,,,0.00,VWS V13.01,2013-02-03 00:26:00,
2013-02-02 19:31:00,30.2,26.8,23.27,ESE,113,3.0,6.0,87,0.00,,,0.00,VWS V13.01,2013-02-03 00:31:00,
2013-02-02 19:36:00,29.9,26.5,23.27,ESE,113,4.0,7.0,87,0.00,,,0.00,VWS V13.01,2013-02-03 00:36:00,
2013-02-02 19:41:00,29.8,26.4,23.27,SE,132,4.0,4.0,87,0.00,,,0.00,VWS V13.01,2013-02-03 00:41:00,
2013-02-02 19:46:00,29.8,26.4,23.27,SSE,159,2.0,8.0,87,0.00,,,0.00,VWS V13.01,2013-02-03 00:46:00,
2013-02-02 19:51:00,29.9,26.5,23.27,SE,125,2.0,6.0,87,0.00,,,0.00,VWS V13.01,2013-02-03 00:51:00,
2013-02-02 19:56:00,29.8,26.4,23.27,ENE,69,3.0,4.0,87,0.00,,,0.00,VWS V13.01,2013-02-03 00:56:00,
2013-02-02 20:01:00,29.7,26.3,23.27,ESE,119,5.0,10.0,87,0.00,,,0.00,VWS V13.01,2013-02-03 01:01:00,
2013-02-02 20:06:00,29.6,26.5,23.27,East,96,4.0,10.0,88,0.00,,,0.00,VWS V13.01,2013-02-03 01:06:00,
2013-02-02 20:11:00,29.6,26.5,23.27,ESE,113,6.0,9.0,88,0.00,,,0.00,VWS V13.01,2013-02-03 01:11:00,
2013-02-02 20:16:00,29.6,26.5,23.27,ENE,75,2.0,10.0,88,0.00,,,0.00,VWS V13.01,2013-02-03 01:16:00,
2013-02-02 20:21:00,29.8,26.7,23.27,ESE,113,3.0,6.0,88,0.00,,,0.00,VWS V13.01,2013-02-03 01:21:00,
2013-02-02 20:26:00,29.9,26.8,23.27,SE,144,0.0,5.0,88,0.00,,,0.00,VWS V13.01,2013-02-03 01:26:00,
2013-02-02 20:31:00,29.8,26.7,23.27,SE,129,5.0,6.0,88,0.00,,,0.00,VWS V13.01,2013-02-03 01:31:00,
2013-02-02 20:36:00,30.0,26.9,23.27,East,101,1.0,8.0,88,0.00,,,0.00,VWS V13.01,2013-02-03 01:36:00,
2013-02-02 20:41:00,30.6,27.5,23.27,East,84,4.0,5.0,88,0.00,,,0.00,VWS V13.01,2013-02-03 01:41:00,
2013-02-02 20:46:00,30.4,27.3,23.27,ESE,113,5.0,7.0,88,0.00,,,0.00,VWS V13.01,2013-02-03 01:46:00,
2013-02-02 20:51:00,30.3,27.2,23.27,ESE,111,3.0,7.0,88,0.00,,,0.00,VWS V13.01,2013-02-03 01:51:00,
2013-02-02 20:56:00,30.6,27.5,23.27,ESE,110,2.0,4.0,88,0.00,,,0.00,VWS V13.01,2013-02-03 01:56:00,
2013-02-02 21:01:00,30.5,27.4,23.27,East,88,3.0,3.0,88,0.00,,,0.00,VWS V13.01,2013-02-03 02:01:00,
2013-02-02 21:06:00,30.8,27.7,23.27,East,96,5.0,6.0,88,0.00,,,0.00,VWS V13.01,2013-02-03 02:06:00,
2013-02-02 21:11:00,31.2,28.1,23.27,SE,135,1.0,5.0,88,0.00,,,0.00,VWS V13.01,2013-02-03 02:11:00,
2013-02-02 21:16:00,31.7,28.6,23.27,ENE,72,0.0,3.0,88,0.00,,,0.00,VWS V13.01,2013-02-03 02:16:00,
2013-02-02 21:21:00,32.0,28.9,23.27,ENE,73,2.0,2.0,88,0.00,,,0.00,VWS V13.01,2013-02-03 02:21:00,
2013-02-02 21:26:00,32.0,28.9,23.27,ENE,78,1.0,3.0,88,0.00,,,0.00,VWS V13.01,2013-02-03 02:26:00,
2013-02-02 21:31:00,32.0,28.9,23.27,ENE,78,1.0,3.0,88,0.00,,,0.00,VWS V13.01,2013-02-03 02:31:00,
2013-02-02 21:36:00,31.6,28.2,23.27,East,79,0.0,3.0,87,0.00,,,0.00,VWS V13.01,2013-02-03 02:36:00,
2013-02-02 21:41:00,31.4,28.0,23.27,East,79,0.0,3.0,87,0.00,,,0.00,VWS V13.01,2013-02-03 02:41:00,
2013-02-02 21:46:00,31.5,28.4,23.27,East,79,2.0,2.0,88,0.00,,,0.00,VWS V13.01,2013-02-03 02:46:00,
2013-02-02 21:51:00,31.5,28.1,23.27,East,79,0.0,2.0,87,0.00,,,0.00,VWS V13.01,2013-02-03 02:51:00,
2013-02-02 21:56:00,31.2,28.1,23.27,East,92,0.0,3.0,88,0.00,,,0.00,VWS V13.01,2013-02-03 02:56:00,
2013-02-02 22:01:00,32.0,29.1,23.27,East,93,1.0,2.0,89,0.00,,,0.00,VWS V13.01,2013-02-03 03:01:00,
2013-02-02 22:06:00,32.0,28.9,23.27,East,90,1.0,3.0,88,0.00,,,0.00,VWS V13.01,2013-02-03 03:06:00,
2013-02-02 22:11:00,32.5,29.4,23.27,East,90,2.0,2.0,88,0.00,,,0.00,VWS V13.01,2013-02-03 03:11:00,
2013-02-02 22:16:00,32.1,28.7,23.27,East,92,1.0,3.0,87,0.00,,,0.00,VWS V13.01,2013-02-03 03:16:00,
2013-02-02 22:21:00,31.8,28.4,23.27,East,92,0.0,3.0,87,0.00,,,0.00,VWS V13.01,2013-02-03 03:21:00,
2013-02-02 22:26:00,31.9,28.5,23.27,East,92,0.0,1.0,87,0.00,,,0.00,VWS V13.01,2013-02-03 03:26:00,
2013-02-02 22:31:00,31.6,28.2,23.27,East,91,1.0,1.0,87,0.00,,,0.00,VWS V13.01,2013-02-03 03:31:00,
2013-02-02 22:36:00,32.3,29.1,23.27,East,92,0.0,1.0,88,0.00,,,0.00,VWS V13.01,2013-02-03 03:36:00,
2013-02-02 22:41:00,32.4,29.2,23.27,East,91,0.0,3.0,88,0.00,,,0.00,VWS V13.01,2013-02-03 03:41:00,
2013-02-02 22:46:00,32.2,28.8,23.27,East,92,0.0,3.0,87,0.00,,,0.00,VWS V13.01,2013-02-03 03:46:00,
2013-02-02 22:51:00,32.1,29.0,23.27,East,91,0.0,3.0,88,0.00,,,0.00,VWS V13.01,2013-02-03 03:51:00,
2013-02-02 22:56:00,32.3,28.9,23.27,East,92,0.0,2.0,87,0.00,,,0.00,VWS V13.01,2013-02-03 03:56:00,
2013-02-02 23:01:00,31.5,27.8,23.27,East,92,0.0,1.0,86,0.00,,,0.00,VWS V13.01,2013-02-03 04:01:00,
2013-02-02 23:06:00,31.5,28.1,23.27,East,91,0.0,1.0,87,0.00,,,0.00,VWS V13.01,2013-02-03 04:06:00,
2013-02-02 23:11:00,31.7,28.6,23.27,East,92,0.0,1.0,88,0.00,,,0.00,VWS V13.01,2013-02-03 04:11:00,
2013-02-02 23:16:00,31.5,28.1,23.27,East,91,0.0,0.0,87,0.00,,,0.00,VWS V13.01,2013-02-03 04:16:00,
2013-02-02 23:21:00,31.9,28.8,23.27,East,92,0.0,1.0,88,0.00,,,0.00,VWS V13.01,2013-02-03 04:21:00,
2013-02-02 23:26:00,31.7,28.3,23.27,East,92,0.0,2.0,87,0.00,,,0.00,VWS V13.01,2013-02-03 04:26:00,
2013-02-02 23:31:00,31.4,28.0,23.27,East,92,0.0,0.0,87,0.00,,,0.00,VWS V13.01,2013-02-03 04:31:00,
2013-02-02 23:36:00,31.1,27.7,23.27,East,92,0.0,0.0,87,0.00,,,0.00,VWS V13.01,2013-02-03 04:36:00,
2013-02-02 23:41:00,31.1,27.7,23.27,East,92,0.0,1.0,87,0.00,,,0.00,VWS V13.01,2013-02-03 04:41:00,
2013-02-02 23:46:00,31.0,27.6,23.27,East,91,0.0,1.0,87,0.00,,,0.00,VWS V13.01,2013-02-03 04:46:00,
2013-02-02 23:51:00,30.9,27.5,23.27,East,92,0.0,0.0,87,0.00,,,0.00,VWS V13.01,2013-02-03 04:51:00,
2013-02-02 23:56:00,30.7,27.3,23.27,East,92,0.0,0.0,87,0.00,,,0.00,VWS V13.01,2013-02-03 04:56:00,